[[{"header":{"parameterUnit":"m.s-1","parameterCategory":1,"la1":30.2991,"la2":30.254,"lo1":-89.0895,"lo2":-89.0444,"dy":0.0017,"dx":0.0017,"nx":28,"ny":28,"refTime":"2024-05-07T21:00:00:Z","depth":0,"parameterNumber":2,"parameterNumberName":"U-component_of_WINDS"},"data":[0,0,0,0,0,0,0,0,0,0,0,0,0,0,0,0,0,0,0,0,0,0,0,0,0,0,0,0,0,0,0,0,0,0,0,0,0,0,0,0,0,0,0,0,0,0,0,0,0,0,0,0,0,0,0,0,0,0,0.596,0.596,0,0.5976,0.5976,0.5976,0.5948,0.5947,0.5946,0.5945,0.5962,0.5963,0.5965,0,0,0,0,0,0,0,0,0,0,0,0,0,0.5905,0.5906,0.596,0.596,0.596,0.5975,0.5976,0.5976,0.5948,0.5947,0.5946,0.5945,0.5962,0.5963,0.5965,0,0,0,0,0,0,0,0,0,0,0,0,0,0.5925,0.5906,0.596,0.5948,0.5947,0.5975,0.5976,0.5976,0.5948,0.5947,0.5946,0.5944,0.5961,0.5963,0.5965,0.6005,0,0,0.5971,0.5972,0,0,0,0,0,0,0,0,0.5924,0.5927,0.595,0.5949,0.5948,0.5958,0.5962,0.5986,0.5949,0.5948,0.5945,0.5944,0.5962,0.5964,0.597,0.6006,0.6007,0.5971,0.5972,0.5973,0.5974,0,0,0,0,0,0,0,0.5923,0.5927,0.5966,0.595,0.5949,0.5942,0.5943,0.5967,0.5963,0.5948,0.5946,0.5948,0.5961,0.5968,0.597,0.6007,0.5971,0.5973,0.5974,0.5975,0.6076,0.6078,0,0,0,0,0,0,0.5923,0.5926,0.5965,0.5966,0.5932,0.5944,0.5946,0.5956,0.5962,0.5962,0.5949,0.5947,0.5965,0.5968,0.5971,0.6018,0.5973,0.5975,0.5976,0.6075,0.6077,0.6078,0,0,0,0,0,0,0.5922,0.5927,0.5965,0.5945,0.595,0.5946,0.5959,0.5957,0.5964,0.5963,0.5963,0.5957,0.5964,0.5968,0.5997,0.6018,0.5976,0.5978,0.6073,0.6075,0.6077,0.6112,0,0,0,0,0,0,0.592,0.5927,0.5942,0.5946,0.5951,0.5991,0.596,0.5959,0.5968,0.5964,0.597,0.597,0.5963,0.5994,0.5999,0.602,0.5979,0.6071,0.6074,0.6077,0.6109,0.6115,0.6121,0,0,0,0,0,0.5919,0.5952,0.5943,0.5948,0.597,0.5992,0.5995,0.5986,0.597,0.5985,0.5984,0.597,0.6015,0.5997,0.6002,0.6024,0.607,0.6073,0.6076,0.6107,0.6114,0.6121,0,0,0,0,0,0,0.5951,0.5952,0.5942,0.5978,0.5985,0.5987,0.6007,0.5995,0.6007,0.6004,0.5993,0.5995,0.6026,0.6028,0.6008,0.6063,0.6039,0.6044,0.6061,0.6068,0.6073,0.6072,0.5981,0,0,0,0,0,0.5962,0.5979,0.598,0.6011,0.6015,0.601,0.6019,0.6012,0.6019,0.6022,0.6024,0.6031,0.6047,0.6057,0.6072,0.6109,0.611,0.6127,0.6133,0.6138,0.6142,0.6161,0.6168,0.6089,0.6089,0.6089,0,0,0.5985,0.5988,0.6,0.6017,0.6022,0.604,0.6013,0.6034,0.6047,0.6025,0.6052,0.6054,0.6061,0.6095,0.6109,0.6097,0.6163,0.6142,0.6146,0.6147,0.6165,0.6172,0.6179,0.6092,0.6091,0.6091,0,0,0.6036,0.6041,0.6067,0.6072,0.6079,0.6076,0.6082,0.6086,0.6086,0.6113,0.6097,0.6112,0.614,0.6145,0.6152,0.6205,0.6192,0.621,0.624,0.6259,0.6265,0.627,0.6289,0.6295,0.6214,0.6214,0.6214,0,0.6064,0.6091,0.6081,0.6103,0.6111,0.6092,0.6118,0.6123,0.6135,0.6141,0.6127,0.616,0.6164,0.6198,0.6211,0.6217,0.6223,0.6209,0.6265,0.627,0.6275,0.6292,0.6299,0.6216,0.6216,0.6216,0.6215,0,0.6125,0.6144,0.6164,0.6175,0.6185,0.6209,0.6202,0.6214,0.6206,0.6203,0.6231,0.6235,0.6249,0.6256,0.6249,0.6289,0.6281,0.6267,0.6242,0.6285,0.6301,0.6307,0.6219,0.6218,0.6218,0.6217,0,0,0.6197,0.6202,0.621,0.6214,0.6221,0.6235,0.6258,0.6271,0.6281,0.629,0.6308,0.6331,0.6317,0.6324,0.6317,0.6334,0.6374,0.6317,0.6317,0.6327,0.6418,0.6429,0.6437,0.6366,0.6367,0.6368,0.6417,0,0.6248,0.6286,0.6278,0.6316,0.6333,0.6315,0.6334,0.634,0.6338,0.6352,0.6351,0.6367,0.6348,0.6352,0.6367,0.6366,0.6393,0.6363,0.6383,0.6383,0.6381,0.6445,0.6457,0.6503,0.6423,0.6425,0.6425,0,0.6312,0.6323,0.6362,0.6365,0.6372,0.639,0.6401,0.6415,0.6421,0.6418,0.6426,0.6416,0.6437,0.6413,0.6443,0.6423,0.643,0.6431,0.6432,0.6434,0.6407,0.6448,0.6518,0.6524,0.6435,0.6434,0.6434,0,0.636,0.6384,0.6411,0.6415,0.6419,0.6432,0.6434,0.6439,0.6448,0.6458,0.6463,0.6476,0.6483,0.6492,0.6485,0.6468,0.6516,0.6491,0.6514,0.6515,0.6525,0.6524,0.6597,0.6531,0.6531,0.6531,0.653,0,0.6417,0.6442,0.6432,0.6448,0.6475,0.6465,0.6492,0.6492,0.6497,0.6512,0.6497,0.6513,0.6502,0.6517,0.6511,0.6536,0.654,0.6538,0.6536,0.6539,0.6539,0.6544,0.654,0.6532,0.6532,0.6532,0.6531,0,0.6475,0.647,0.6497,0.6499,0.65,0.6519,0.652,0.6535,0.6533,0.6553,0.6557,0.6552,0.6568,0.6562,0.6579,0.6575,0.6607,0.6602,0.6605,0.6604,0.6627,0.6624,0.6704,0.6714,0.6642,0.6643,0.6643,0,0.6512,0.653,0.6533,0.6543,0.6546,0.6562,0.657,0.656,0.657,0.6578,0.6592,0.6606,0.6617,0.6643,0.6642,0.6654,0.6648,0.6675,0.665,0.6652,0.6648,0.6647,0.6648,0.668,0.6681,0.6682,0.6682,0,0.6577,0.6573,0.6586,0.6597,0.6608,0.6617,0.6624,0.6633,0.6623,0.6635,0.6651,0.6659,0.6676,0.6691,0.6702,0.6704,0.6692,0.669,0.6696,0.6699,0.67,0.6699,0.6618,0.6689,0.6688,0.6687,0.6687,0.6687,0.6624,0.664,0.6644,0.6659,0.6663,0.6671,0.6684,0.6683,0.6696,0.6709,0.6703,0.6721,0.6726,0.674,0.6743,0.6757,0.6747,0.6756,0.6758,0.676,0.6762,0.6698,0.6759,0.6759,0.6759,0.6759,0.6759,0,0.6688,0.669,0.6703,0.6714,0.6725,0.6713,0.672,0.673,0.6747,0.6752,0.6763,0.6781,0.6795,0.6794,0.6807,0.6818,0.6813,0.6822,0.682,0.6821,0.6772,0.6765,0.6826,0.6826,0.6826,0.6826,0.6826,0.6826,0.6722,0.6747,0.6744,0.6771,0.6773,0.679,0.6796,0.6802,0.6806,0.6827,0.6838,0.6837,0.684,0.6853,0.6865,0.6864,0.6869,0.688,0.6877,0.6831,0.6824,0.6818,0.6812,0.6881,0.6881,0.6925,0.6926,0.6926]},{"header":{"parameterUnit":"m.s-1","parameterCategory":1,"la1":30.2991,"la2":30.254,"lo1":-89.0895,"lo2":-89.0444,"dy":0.0017,"dx":0.0017,"nx":28,"ny":28,"refTime":"2024-05-07T21:00:00:Z","depth":0,"parameterNumber":3,"parameterNumberName":"V-component_of_WINDS"},"data":[0,0,0,0,0,0,0,0,0,0,0,0,0,0,0,0,0,0,0,0,0,0,0,0,0,0,0,0,0,0,0,0,0,0,0,0,0,0,0,0,0,0,0,0,0,0,0,0,0,0,0,0,0,0,0,0,0,0,6.7912,6.7914,0,6.8062,6.8064,6.8065,6.803,6.8027,6.8024,6.8021,6.8168,6.8174,6.8181,0,0,0,0,0,0,0,0,0,0,0,0,0,6.7588,6.7594,6.7912,6.7914,6.7916,6.8062,6.8064,6.8066,6.803,6.8027,6.8023,6.802,6.8166,6.8173,6.8181,0,0,0,0,0,0,0,0,0,0,0,0,0,6.7732,6.7596,6.7912,6.7916,6.7918,6.8061,6.8064,6.8066,6.8031,6.8027,6.8022,6.8018,6.8163,6.8173,6.8182,6.8329,0,0,6.8212,6.8217,0,0,0,0,0,0,0,0,6.7724,6.7744,6.7913,6.7916,6.7918,6.8023,6.8003,6.8154,6.8032,6.7988,6.8021,6.8016,6.8123,6.8135,6.8173,6.8336,6.8342,6.8213,6.8219,6.8223,6.8226,0,0,0,0,0,0,0,6.7714,6.7737,6.7971,6.7916,6.7919,6.7908,6.7923,6.8031,6.8077,6.7991,6.7989,6.8008,6.8123,6.8163,6.8176,6.8344,6.8213,6.8222,6.8228,6.8232,6.8634,6.8639,0,0,0,0,0,0,6.7703,6.7729,6.7966,6.7975,6.7809,6.7917,6.7935,6.7993,6.8076,6.8084,6.8011,6.8005,6.8149,6.8164,6.8181,6.8358,6.8223,6.8233,6.8238,6.8629,6.8635,6.864,0,0,0,0,0,0,6.7696,6.7724,6.796,6.7852,6.7881,6.7927,6.7993,6.7999,6.8039,6.8091,6.8098,6.8045,6.8146,6.8167,6.8293,6.8363,6.8237,6.8246,6.8624,6.8631,6.8638,6.8714,0,0,0,0,0,0,6.7687,6.7722,6.778,6.7854,6.7887,6.8072,6.7998,6.8005,6.8057,6.8051,6.8124,6.8132,6.8144,6.8278,6.8303,6.8374,6.8254,6.8618,6.8627,6.8635,6.8705,6.8723,6.8738,0,0,0,0,0,6.7675,6.7794,6.7783,6.7812,6.7961,6.8076,6.8095,6.8109,6.8063,6.812,6.8154,6.813,6.8351,6.8291,6.8318,6.8394,6.8613,6.8624,6.8635,6.8698,6.8719,6.8737,0,0,0,0,0,0,6.7725,6.7804,6.7793,6.7939,6.8002,6.807,6.8143,6.813,6.8205,6.8196,6.8207,6.8224,6.8353,6.8385,6.8318,6.854,6.8475,6.8492,6.8514,6.8535,6.8551,6.854,6.8262,0,0,0,0,0,6.7753,6.7843,6.7906,6.8028,6.8061,6.8097,6.8147,6.8153,6.8217,6.8242,6.8284,6.8346,6.8429,6.8483,6.8563,6.8709,6.8725,6.8775,6.8791,6.8804,6.8818,6.8898,6.8921,6.8676,6.8676,6.8675,0,0,6.7812,6.7866,6.7922,6.804,6.8089,6.818,6.8119,6.8217,6.8284,6.8256,6.8379,6.8412,6.848,6.8617,6.868,6.8649,6.8889,6.8818,6.8828,6.8835,6.8912,6.8935,6.8956,6.8683,6.8682,6.868,0,0,6.7966,6.8016,6.8125,6.8175,6.8251,6.8274,6.83,6.8371,6.8393,6.8516,6.8497,6.8575,6.8718,6.8768,6.8812,6.8985,6.8966,6.901,6.9095,6.9173,6.9192,6.9209,6.9271,6.9293,6.9024,6.9024,6.9024,0,6.8029,6.8167,6.8181,6.8282,6.8334,6.8315,6.8424,6.8471,6.8568,6.8604,6.8568,6.8748,6.8792,6.8941,6.8984,6.902,6.9048,6.9002,6.9189,6.9206,6.9222,6.9281,6.9305,6.9029,6.9029,6.9028,6.9028,0,6.8241,6.8337,6.8414,6.8512,6.8572,6.8676,6.8704,6.8763,6.8762,6.8788,6.8913,6.8967,6.9057,6.9092,6.9091,6.9241,6.9219,6.9186,6.9121,6.9251,6.9306,6.9329,6.9036,6.9035,6.9033,6.9032,0,0,6.8431,6.8535,6.8563,6.8607,6.8689,6.8763,6.8864,6.8955,6.9006,6.9072,6.9158,6.9279,6.925,6.93,6.9304,6.9372,6.9506,6.9331,6.9333,6.9362,6.9674,6.9699,6.9725,6.9493,6.9498,6.9501,6.9668,0,6.8593,6.8777,6.8792,6.8956,6.9044,6.9027,6.9116,6.9174,6.9201,6.9278,6.9306,6.9393,6.9347,6.9377,6.9444,6.9476,6.9569,6.9464,6.9572,6.9575,6.9557,6.9754,6.9781,6.9937,6.969,6.9694,6.9696,0,6.8807,6.8883,6.9057,6.9127,6.9164,6.9245,6.9329,6.9403,6.9468,6.9482,6.9539,6.9534,6.9637,6.9568,6.9709,6.9637,6.9682,6.9704,6.971,6.9722,6.9645,6.9771,6.9986,7.001,6.9731,6.9728,6.9725,0,6.8929,6.9075,6.9198,6.9236,6.932,6.9377,6.9414,6.9476,6.9529,6.9601,6.9636,6.9718,6.9763,6.9826,6.9843,6.9791,6.9984,6.9916,6.9998,6.9998,7.004,7.0037,7.0266,7.0067,7.0067,7.0066,7.0066,0,6.9109,6.9216,6.9254,6.933,6.9449,6.9464,6.958,6.9613,6.9668,6.9749,6.9737,6.9812,6.983,6.9907,6.992,7.0036,7.0055,7.0069,7.0071,7.0071,7.007,7.0101,7.0091,7.0073,7.0071,7.007,7.0069,0,6.9266,6.9296,6.943,6.9499,6.9519,6.9604,6.9662,6.9734,6.9758,6.986,6.9885,6.9924,7.0015,7.0038,7.0145,7.0154,7.029,7.0281,7.0269,7.0269,7.035,7.0342,7.0608,7.0643,7.042,7.0422,7.0424,0,6.938,6.9463,6.9541,6.9596,6.9637,6.9724,6.9779,6.9796,6.9853,6.9934,6.9995,7.0086,7.0159,7.0305,7.0341,7.0423,7.0417,7.0504,7.0429,7.0426,7.0419,7.0415,7.0423,7.0519,7.0521,7.0523,7.0524,0,6.9579,6.9589,6.9671,6.9758,6.9824,6.9893,6.9958,7.0002,7.0027,7.0092,7.0187,7.0244,7.0355,7.0444,7.0527,7.0562,7.0548,7.0548,7.0571,7.0572,7.0562,7.0569,7.0309,7.0542,7.054,7.0539,7.0538,7.0537,6.9718,6.9791,6.9858,6.9949,7.0,7.0062,7.0133,7.0168,7.0247,7.0341,7.0345,7.0448,7.0509,7.062,7.066,7.0739,7.0712,7.0746,7.0755,7.0763,7.0771,7.0549,7.0754,7.0753,7.0753,7.0753,7.0752,0,6.9917,6.996,7.0043,7.0136,7.0207,7.0189,7.026,7.032,7.0411,7.0471,7.0544,7.0652,7.0739,7.0782,7.0867,7.0922,7.0917,7.0944,7.094,7.0949,7.0789,7.0761,7.0946,7.0946,7.0946,7.0946,7.0946,7.0946,7.0029,7.0151,7.017,7.0317,7.0358,7.046,7.0503,7.0558,7.0607,7.0729,7.0802,7.083,7.0883,7.0972,7.105,7.106,7.1092,7.1123,7.1129,7.098,7.096,7.0941,7.0915,7.1129,7.1129,7.1282,7.1284,7.1285]}]]